TimeAKST,TemperatureF,Dew PointF,Humidity,Sea Level PressureIn,VisibilityMPH,Wind Direction,Wind SpeedMPH,Gust SpeedMPH,PrecipitationIn,Events,Conditions,WindDirDegrees,DateUTC
12:53 AM,37.9,33.1,83,29.65,9.0,SSE,13.8,25.3,0.00,Rain,Light Rain,160,2013-03-01 09:53:00
1:53 AM,39.0,33.1,79,29.69,10.0,South,10.4,23.0,0.00,,Scattered Clouds,180,2013-03-01 10:53:00
2:53 AM,37.9,33.1,83,29.72,10.0,South,8.1,-,0.00,,Scattered Clouds,170,2013-03-01 11:53:00
3:53 AM,37.0,33.1,86,29.74,10.0,ESE,6.9,-,N/A,,Mostly Cloudy,120,2013-03-01 12:53:00
4:10 AM,37.4,33.8,87,29.74,10.0,Calm,Calm,-,0.00,Rain,Light Rain,0,2013-03-01 13:10:00
4:43 AM,37.4,32.0,81,29.75,10.0,South,9.2,-,0.00,,Mostly Cloudy,170,2013-03-01 13:43:00
4:53 AM,37.0,30.0,76,29.75,10.0,South,5.8,-,0.00,,Partly Cloudy,170,2013-03-01 13:53:00
5:34 AM,35.6,33.8,93,29.77,10.0,ENE,5.8,-,0.00,,Overcast,70,2013-03-01 14:34:00
5:53 AM,34.0,33.1,96,29.78,10.0,East,6.9,-,0.00,,Overcast,90,2013-03-01 14:53:00
6:08 AM,33.8,33.8,100,29.79,10.0,West,4.6,-,N/A,,Overcast,270,2013-03-01 15:08:00
6:24 AM,33.8,32.0,93,29.79,10.0,NNW,3.5,-,N/A,,Overcast,330,2013-03-01 15:24:00
6:53 AM,34.0,32.0,92,29.80,10.0,East,3.5,-,N/A,,Overcast,90,2013-03-01 15:53:00
7:00 AM,33.8,32.0,93,29.79,10.0,East,4.6,-,N/A,,Overcast,80,2013-03-01 16:00:00
7:53 AM,32.0,30.9,96,29.81,10.0,Calm,Calm,-,N/A,,Mostly Cloudy,0,2013-03-01 16:53:00
8:53 AM,33.1,32.0,96,29.83,9.0,Calm,Calm,-,0.00,Snow,Light Snow,0,2013-03-01 17:53:00
9:26 AM,33.8,32.0,93,29.84,1.8,SSW,3.5,-,0.01,Snow,Light Snow,200,2013-03-01 18:26:00
9:37 AM,33.8,33.8,100,29.84,3.0,Calm,Calm,-,0.03,Snow,Light Snow,0,2013-03-01 18:37:00
9:53 AM,34.0,32.0,92,29.85,7.0,Calm,Calm,-,0.03,,Overcast,0,2013-03-01 18:53:00
10:15 AM,35.6,33.8,93,29.85,10.0,ESE,4.6,-,0.01,Rain,Light Rain,110,2013-03-01 19:15:00
10:53 AM,35.1,33.1,92,29.86,10.0,East,3.5,-,0.01,,Mostly Cloudy,90,2013-03-01 19:53:00
11:53 AM,37.0,34.0,89,29.89,10.0,ENE,4.6,-,N/A,,Scattered Clouds,70,2013-03-01 20:53:00
12:53 PM,37.0,33.1,86,29.90,10.0,Calm,Calm,-,N/A,,Overcast,0,2013-03-01 21:53:00
1:53 PM,37.9,34.0,86,29.91,10.0,East,4.6,-,N/A,,Scattered Clouds,100,2013-03-01 22:53:00
2:53 PM,37.9,34.0,86,29.91,10.0,East,5.8,-,N/A,,Partly Cloudy,100,2013-03-01 23:53:00
3:53 PM,37.0,33.1,86,29.91,10.0,ESE,3.5,-,N/A,,Scattered Clouds,110,2013-03-02 00:53:00
4:53 PM,37.0,33.1,86,29.91,10.0,Calm,Calm,-,N/A,,Clear,0,2013-03-02 01:53:00
5:53 PM,35.1,33.1,92,29.91,10.0,Calm,Calm,-,N/A,,Mostly Cloudy,0,2013-03-02 02:53:00
6:53 PM,34.0,32.0,92,29.93,10.0,East,4.6,-,N/A,,Overcast,90,2013-03-02 03:53:00
7:53 PM,34.0,30.9,89,29.94,10.0,ENE,3.5,-,N/A,,Overcast,70,2013-03-02 04:53:00
8:53 PM,34.0,30.9,89,29.94,10.0,Calm,Calm,-,N/A,,Overcast,0,2013-03-02 05:53:00
9:53 PM,32.0,30.0,92,29.94,10.0,Calm,Calm,-,N/A,,Overcast,0,2013-03-02 06:53:00
10:37 PM,33.8,30.2,87,29.94,10.0,Calm,Calm,-,N/A,,Overcast,0,2013-03-02 07:37:00
10:53 PM,33.1,30.0,89,29.94,10.0,Calm,Calm,-,N/A,,Overcast,0,2013-03-02 07:53:00
11:11 PM,32.0,28.4,87,29.94,10.0,Calm,Calm,-,N/A,,Mostly Cloudy,0,2013-03-02 08:11:00
11:53 PM,30.9,30.0,96,29.94,10.0,Calm,Calm,-,N/A,,Mostly Cloudy,0,2013-03-02 08:53:00